This demonstration page uses our WeatherBlox Daily Observations layout. Learn more.

Left ArrowRight Arrow

34.74481, -87.66753

Hourly Observations for February 17, 2021

Temp ( °F °C ) Dew Point ( °F °C ) Humidity (%) Winds ( mph kmh ) Pressure ( in mb ) Visibility ( mi km ) Precip ( " mm )
12:11 am 00:11 Partly Cloudy 19 -7.2 10 -12.2 68 68 NE 9 15 30.30 1026 10 16 0.00 0.00
12:53 am 00:53 Clear 19 -7.2 11 -11.7 71 71 ENE 9 15 30.26 1025 10 16 0.00 0.00
1:53 am 01:53 Mostly Clear 19 -7.2 11 -11.7 71 71 Calm 30.28 1025 10 16 0.00 0.00
2:53 am 02:53 Mostly Cloudy 19 -7.2 11 -11.7 71 71 ENE 5 7 30.28 1025 10 16 0.00 0.00
3:53 am 03:53 Clear 20 -6.7 11 -11.7 68 68 E 5 7 30.27 1025 10 16 0.00 0.00
4:17 am 04:17 Mostly Cloudy 20 -6.7 11 -11.7 68 68 E 6 9 30.30 1026 10 16 0.00 0.00
4:35 am 04:35 Cloudy 20 -6.7 11 -11.7 68 68 ENE 6 9 30.30 1026 10 16 0.00 0.00
4:53 am 04:53 Mostly Cloudy 20 -6.7 12 -11.1 71 71 ENE 6 9 30.27 1025 10 16 0.00 0.00
5:17 am 05:17 Partly Cloudy 20 -6.7 12 -11.1 71 71 E 7 11 30.28 1025 10 16 0.00 0.00
5:24 am 05:24 Mostly Cloudy 20 -6.7 12 -11.1 71 71 E 7 11 30.28 1025 10 16 0.00 0.00
5:38 am 05:38 Partly Cloudy 19 -7.2 12 -11.1 74 74 E 10 17 30.28 1025 10 16 0.00 0.00
5:53 am 05:53 Mostly Clear 19 -7.2 12 -11.1 74 74 ENE 6 9 30.27 1025 10 16 0.00 0.00
6:06 am 06:06 Mostly Cloudy 20 -6.7 12 -11.1 71 71 E 6 9 30.30 1026 10 16 0.00 0.00
6:17 am 06:17 Mostly Cloudy 19 -7.2 12 -11.1 74 74 E 5 7 30.30 1026 10 16 0.00 0.00
6:53 am 06:53 Cloudy 20 -6.7 12 -11.1 71 71 E 7 11 30.28 1026 8 13 0.00 0.00
7:53 am 07:53 Cloudy 21 -6.1 13 -10.6 71 71 ENE 8 13 30.31 1026 10 16 0.00 0.00
8:48 am 08:48 Cloudy 21 -6 16 -9 80 80 ENE 6 9 30.32 1027 9 14 0.00 0.00
8:53 am 08:53 Cloudy 22 -5.6 15 -9.4 75 75 ENE 6 9 30.29 1026 9 14 0.00 0.00
9:53 am 09:53 Cloudy 23 -5 16 -8.9 74 74 ENE 7 11 30.27 1025 8 13 0.00 0.00
10:02 am 10:02 Cloudy 24 -4.4 16 -8.9 71 71 NE 5 7 30.29 1026 9 14 0.00 0.00
10:53 am 10:53 Cloudy 24 -4.4 16 -8.9 71 71 NE 6 9 30.26 1025 8 13 0.00 0.00
11:31 am 11:31 Cloudy 25 -3.9 17 -8.3 72 72 ENE 7 11 30.26 1025 9 14 0.00 0.00
11:53 am 11:53 Cloudy 26 -3.3 18 -7.8 71 71 ENE 8 13 30.22 1023 8 13 0.00 0.00
12:03 pm 12:03 Cloudy 26 -3.3 18 -7.8 71 71 ENE 8 13 30.23 1024 8 13 0.00 0.00
12:53 pm 12:53 Cloudy 27 -2.8 19 -7.2 72 72 ENE 6 9 30.17 1022 8 13 0.00 0.00
1:38 pm 13:38 Cloudy 28 -2.2 20 -6.7 72 72 NE 6 9 30.19 1023 9 14 0.00 0.00
1:49 pm 13:49 Cloudy 28 -2 19 -7 69 69 NNE 6 9 30.17 1022 10 16 0.00 0.00
1:53 pm 13:53 Cloudy 29 -1.7 20 -6.7 69 69 NE 5 7 30.16 1021 10 16 0.00 0.00
2:29 pm 14:29 Cloudy 29 -1.7 20 -6.7 69 69 NE 8 13 30.14 1021 10 16 0.00 0.00
2:53 pm 14:53 Cloudy 29 -1.7 21 -6.1 72 72 NE 7 11 30.13 1020 10 16 0.00 0.00
3:53 pm 15:53 Cloudy 30 -1.1 21 -6.1 69 69 ENE 6 9 30.13 1020 8 13 0.00 0.00
4:07 pm 16:07 Cloudy 30 -1.1 22 -5.6 72 72 E 6 9 30.14 1021 8 13 0.00 0.00
4:29 pm 16:29 Cloudy 30 -1.1 22 -5.6 72 72 NNE 5 7 30.15 1021 7 11 0.00 0.00
4:53 pm 16:53 Cloudy 30 -1.1 22 -5.6 72 72 VRB 3 6 30.15 1021 8 13 0.00 0.00
5:43 pm 17:43 Cloudy with Light Snow 30 -1.1 23 -5 75 75 NNE 6 9 30.15 1021 2 3 0.00 0.00
5:53 pm 17:53 Cloudy with Light Snow 30 -1.1 23 -5 75 75 NNE 6 9 30.13 1020 1 1 0.01 0.25
6:15 pm 18:15 Mostly Cloudy with Light Snow 30 -1.1 23 -5 75 75 NNE 7 11 30.16 1021 1 1 0.02 0.51
6:24 pm 18:24 Cloudy with Light Snow 30 -1.1 24 -4.4 79 79 N 5 7 30.18 1022 1 1 0.03 0.76
6:53 pm 18:53 Cloudy with Light Snow 30 -1.1 24 -4.4 79 79 NNE 6 9 30.19 1022 1 1 0.06 1.52
7:03 pm 19:03 Mostly Cloudy with Snow 30 -1.1 24 -4.4 79 79 NE 6 9 30.18 1022 1 1 0.02 0.51
7:30 pm 19:30 Cloudy with Light Snow 30 -1.1 24 -4.4 79 79 NNW 3 6 30.20 1023 1 2 0.07 1.78
7:44 pm 19:44 Cloudy with Light Snow 30 -1.1 24 -4.4 79 79 VRB 5 7 30.20 1023 2 3 0.08 2.03
7:50 pm 19:50 Cloudy with Light Snow 30 -1 25 -4 80 80 NE 5 7 30.19 1022 1 2 0.09 2.29
7:53 pm 19:53 Cloudy with Light Snow 30 -1.1 25 -3.9 82 82 NE 5 7 30.18 1022 1 1 0.10 2.54
8:16 pm 20:16 Mostly Cloudy with Heavy Snow 29 -1.7 24 -4.4 82 82 ENE 5 7 30.18 1022 0 0 0.08 2.03
8:23 pm 20:23 Mostly Cloudy with Light Snow 29 -1.7 24 -4.4 82 82 ENE 6 9 30.19 1022 1 1 0.10 2.54
8:29 pm 20:29 Cloudy with Light Snow 30 -1.1 24 -4.4 79 79 NE 6 9 30.19 1022 1 2 0.11 2.79
8:40 pm 20:40 Cloudy with Light Snow 30 -1.1 24 -4.4 79 79 ENE 3 6 30.19 1022 2 3 0.12 3.05
8:46 pm 20:46 Cloudy with Light Snow 30 -1.1 25 -3.9 82 82 ENE 3 6 30.19 1022 3 5 0.12 3.05
8:53 pm 20:53 Cloudy with Light Snow 30 -1.1 25 -3.9 82 82 ENE 3 6 30.17 1022 3 5 0.13 3.30
8:58 pm 20:58 Cloudy with Light Snow 30 -1.1 24 -4.4 79 79 NE 3 6 30.19 1022 2 3 0.01 0.25
9:11 pm 21:11 Mostly Cloudy with Snow 30 -1.1 24 -4.4 79 79 NE 6 9 30.17 1022 1 1 0.06 1.52
9:31 pm 21:31 Cloudy with Light Snow 30 -1.1 24 -4.4 79 79 NE 5 7 30.20 1023 2 2 0.10 2.54
9:53 pm 21:53 Cloudy with Light Snow 30 -1.1 25 -3.9 82 82 NNE 5 7 30.18 1022 1 2 0.14 3.56
10:24 pm 22:24 Cloudy with Light Snow 30 -1.1 24 -4.4 79 79 NE 6 9 30.18 1022 2 3 0.05 1.27
10:37 pm 22:37 Cloudy with Light Snow 30 -1.1 25 -3.9 82 82 ENE 6 9 30.17 1022 2 3 0.09 2.29
10:46 pm 22:46 Cloudy with Light Snow 31 -0.6 25 -3.9 79 79 ENE 7 11 30.15 1021 3 5 0.12 3.05
10:53 pm 22:53 Cloudy with Light Wintry Mix 31 -0.6 26 -3.3 82 82 ENE 5 7 30.12 1020 4 6 0.13 3.30
11:01 pm 23:01 Cloudy with Light Freezing Rain 31 -0.6 26 -3.3 82 82 ENE 8 13 30.13 1020 4 6 0.00 0.00
11:12 pm 23:12 Cloudy with Light Freezing Rain 32 0 26 -3.3 79 79 NE 6 9 30.13 1020 4 6 0.01 0.25
11:20 pm 23:20 Cloudy with Light Freezing Rain 32 0 27 -2.8 82 82 ENE 6 9 30.12 1020 4 6 0.01 0.25
11:53 pm 23:53 Cloudy with Light Freezing Rain 33 0.6 28 -2.2 82 82 NE 6 9 30.09 1019 4 6 0.02 0.51

Powered by AerisWeather